Powrót do katalogu

STARLINK-34687

AktywnyŁącznośćVLEO
NORAD 64909·PAYLOAD·🇺🇸 United States

Wystrzelony Jul 26, 2025 z Cape Canaveral Space Force Station

Loading…

Następne Przeloty (najbliższe 24 godziny)

TLE

ŚwieżeSource: CelesTrak SupGP

Epoka: Sep 14, 2026, 14:54 UTC

1 64909C 25157F   26257.62131944  .00054050  00000+0  15975-2 0  2579
2 64909  53.1581 185.3536 0001255  89.6658  95.5250 15.34352803    10

Śledź STARLINK-34687 w czasie rzeczywistym z AllMySat

Download on the App Store